Location: Bailen
(14.1842°N, 120.7958°E)
Time: 17:21:23
(UTC+00:00)

RESURS DK-1 - Pass Details

Date: 12 January 2026
Orbit: 526 x 531 km, 69.9° (Epoch: 17 February)

Event Time Altitude Azimuth Distance (km) Brightness Sun altitude
Exits shadow 21:07:46 10° 359° (N) 1,763 4.7 -18.3°
Maximum altitude 21:11:31 43° 72° (ENE) 744 3.3 -17.4°
Drops below altitude 10° 21:15:16 10° 144° (SE) 1,762 5.7 -16.6°
Sets 21:17:30 0° 151° (SSE) 2,649 6.6 -16.1°
